Date String (YYYY-MM-DD hh:mm:ss) UTC,Instrument flags,Ambient pressure (hPa),Sample flow (lpm),Bypass flow (lpm),Sample temperature (°C),Ambient temperature (°C),ASC tube jacket temperature (°C),LED temperature (°C),Box temperature (°C),Sample RH (%),Span deviation,Mass concentration (μg/m³),Mass concentration (μg/m³),Mass concentration (μg/m³)
DateTimeUTC,F1_M11,P_M11,Q1_M11,Q2_M11,T1_M11,T2_M11,T3_M11,T4_M11,T5_M11,U1_M11,ZSPAN_M11,X0_M11,X2_M11,X1_M11
2022-01-12 03:00:00,,0831.2,5.01,0.00,24.1,23.3,00.0,33.2,25.7,08.0,0000.0,0007.82,0004.24,0003.88
2022-01-12 03:01:00,,0831.1,4.99,0.00,24.1,23.2,00.0,33.2,25.7,08.1,0000.0,0007.90,0004.22,0003.86
2022-01-12 03:02:00,,0831.1,5.01,0.00,24.0,23.2,00.0,33.1,25.7,08.3,0000.0,0007.90,0004.21,0003.85
2022-01-12 03:03:00,,0831.2,5.01,0.00,24.0,23.2,00.0,33.1,25.7,08.3,0000.0,0008.01,0004.22,0003.85
2022-01-12 03:04:00,,0831.2,4.99,0.00,24.0,23.2,00.0,33.1,25.7,08.2,0000.0,0007.78,0004.16,0003.84
2022-01-12 03:05:00,,0831.2,5.00,0.00,24.0,23.2,00.0,33.1,25.7,08.1,0000.0,0007.49,0004.12,0003.83
2022-01-12 03:06:00,,0831.2,5.00,0.00,24.0,23.2,00.0,33.1,25.7,08.3,0000.0,0007.42,0004.14,0003.83
2022-01-12 03:07:00,,0831.2,5.00,0.00,24.0,23.2,00.0,33.1,25.6,08.3,0000.0,0007.35,0004.18,0003.85
2022-01-12 03:11:01,,0912.2,5.03,0.00,13.3,12.8,00.0,16.0,14.2,20.3,0000.0,0027.27,0001.55,0000.10
2022-01-12 03:12:00,,0831.1,5.00,0.00,23.9,23.0,00.0,29.4,25.6,08.4,0000.0,0064.06,0003.63,0000.29
2022-01-12 03:13:00,,0831.2,4.99,0.00,23.9,23.0,00.0,30.7,25.6,08.5,0000.0,0036.46,0002.45,0000.19
2022-01-12 03:14:00,,0831.2,5.02,0.00,23.9,23.0,00.0,31.4,25.5,08.5,0000.0,0030.85,0002.00,0000.14
2022-01-12 03:15:00,,0831.2,5.00,0.00,23.8,23.0,00.0,31.9,25.5,08.7,0000.0,0030.76,0001.87,0000.12
2022-01-12 03:16:00,,0831.1,4.99,0.00,23.8,23.0,00.0,32.2,25.5,08.7,0000.0,0030.51,0001.62,0000.10
2022-01-12 03:17:00,,0831.1,5.00,0.00,23.8,23.1,00.0,32.4,25.5,08.8,0000.0,0028.79,0001.55,0000.09
2022-01-12 03:18:00,,0831.1,5.00,0.00,23.8,23.1,00.0,32.5,25.5,08.7,0000.0,0037.79,0002.14,0000.18
2022-01-12 03:19:00,,0831.1,5.01,0.00,23.8,23.1,00.0,32.6,25.5,08.4,0000.0,0040.23,0002.33,0000.23
2022-01-12 03:20:00,,0831.0,4.98,0.00,23.8,23.1,00.0,32.6,25.6,08.5,0000.0,0036.91,0002.32,0000.23
2022-01-12 03:21:00,,0831.0,5.01,0.00,23.9,23.1,00.0,32.7,25.6,08.4,0000.0,0034.77,0002.34,0000.23
2022-01-12 03:22:00,,0831.0,5.00,0.00,23.9,23.2,00.0,32.7,25.6,08.5,0000.0,0033.21,0002.23,0000.22
2022-01-12 03:23:00,,0831.0,4.99,0.00,23.9,23.2,00.0,32.7,25.6,08.5,0000.0,0030.27,0002.00,0000.20
2022-01-12 03:24:00,,0831.0,5.01,0.00,23.9,23.2,00.0,32.8,25.6,08.4,0000.0,0030.01,0002.01,0000.21
2022-01-12 03:25:00,,0831.0,4.99,0.00,23.9,23.2,00.0,32.8,25.6,08.4,0000.0,0029.70,0001.94,0000.21
2022-01-12 03:26:00,,0831.0,5.01,0.00,23.9,23.2,00.0,32.8,25.7,08.6,0000.0,0027.51,0001.83,0000.22
2022-01-12 03:27:00,,0831.0,4.99,0.00,23.9,23.2,00.0,32.8,25.7,08.6,0000.0,0025.43,0001.82,0000.22
2022-01-12 03:28:00,,0831.0,5.01,0.00,23.9,23.2,00.0,32.8,25.7,08.6,0000.0,0024.46,0001.74,0000.21
2022-01-12 03:29:00,,0831.1,5.00,0.00,23.9,23.2,00.0,32.8,25.7,08.5,0000.0,0015.21,0001.18,0000.14
2022-01-12 03:30:00,,0831.1,4.99,0.00,23.9,23.2,00.0,32.8,25.7,08.5,0000.0,0015.69,0001.09,0000.12
2022-01-12 03:31:00,,0831.1,5.01,0.00,23.9,23.2,00.0,32.8,25.7,08.4,0000.0,0018.01,0001.06,0000.11
2022-01-12 03:32:00,,0831.2,5.00,0.00,23.9,23.2,00.0,32.9,25.7,08.4,0000.0,0018.22,0000.91,0000.10
2022-01-12 03:33:00,,0831.2,5.00,0.00,24.0,23.2,00.0,32.9,25.7,08.4,0000.0,0016.62,0000.89,0000.10
2022-01-12 03:34:00,,0831.2,4.99,0.00,24.0,23.3,00.0,32.9,25.7,08.4,0000.0,0015.76,0000.88,0000.09
2022-01-12 03:35:00,,0831.1,5.01,0.00,24.0,23.3,00.0,32.9,25.7,08.4,0000.0,0015.49,0000.83,0000.08
2022-01-12 03:36:00,,0831.2,4.99,0.00,24.0,23.3,00.0,32.9,25.7,08.4,0000.0,0015.32,0000.88,0000.09
2022-01-12 03:37:00,,0831.1,5.01,0.00,24.0,23.3,00.0,32.9,25.7,08.5,0000.0,0015.19,0000.88,0000.09
2022-01-12 03:38:00,,0831.1,5.01,0.00,24.0,23.3,00.0,32.9,25.7,08.6,0000.0,0015.22,0000.88,0000.09
2022-01-12 03:39:00,,0831.2,4.99,0.00,24.0,23.2,00.0,32.9,25.7,08.6,0000.0,0015.41,0000.88,0000.09
2022-01-12 03:40:00,,0831.2,5.02,0.00,24.0,23.2,00.0,32.9,25.7,08.6,0000.0,0015.29,0000.89,0000.09
2022-01-12 03:41:00,,0831.0,4.99,0.00,24.0,23.2,00.0,32.9,25.7,08.6,0000.0,0011.33,0000.70,0000.08
2022-01-12 03:42:00,,0831.0,4.99,0.00,23.9,23.2,00.0,32.9,25.7,08.6,0000.0,0010.24,0000.65,0000.07
2022-01-12 03:43:00,,0831.0,5.02,0.00,23.9,23.2,00.0,32.9,25.7,08.6,0000.0,0011.02,0000.67,0000.07
2022-01-12 03:44:00,,0831.1,4.99,0.00,23.9,23.2,00.0,32.9,25.7,08.5,0000.0,0011.32,0000.64,0000.06
2022-01-12 03:45:00,,0831.2,5.02,0.00,23.9,23.2,00.0,32.9,25.7,08.6,0000.0,0011.14,0000.65,0000.06
2022-01-12 03:46:00,,0831.2,4.99,0.00,23.9,23.2,00.0,32.9,25.7,08.7,0000.0,0012.59,0000.63,0000.05
2022-01-12 03:47:00,,0831.2,5.01,0.00,23.9,23.2,00.0,32.9,25.7,08.8,0000.0,0012.21,0000.58,0000.04
2022-01-12 03:48:00,,0831.2,5.00,0.00,23.9,23.2,00.0,32.9,25.7,08.8,0000.0,0012.58,0000.60,0000.04
2022-01-12 03:49:00,,0831.2,5.01,0.00,23.9,23.2,00.0,32.9,25.7,08.8,0000.0,0013.21,0000.57,0000.04
2022-01-12 03:50:00,,0831.2,4.99,0.00,23.9,23.2,00.0,32.9,25.7,08.7,0000.0,0012.93,0000.59,0000.04
2022-01-12 03:51:00,,0831.1,5.00,0.00,23.9,23.2,00.0,32.9,25.7,08.6,0000.0,0012.90,0000.57,0000.04
2022-01-12 03:52:00,,0831.1,5.01,0.00,23.9,23.2,00.0,32.9,25.7,08.6,0000.0,0013.15,0000.58,0000.04
2022-01-12 03:53:00,,0831.1,5.00,0.00,24.0,23.2,00.0,32.9,25.7,08.5,0000.0,0012.25,0000.47,0000.03
2022-01-12 03:54:00,,0831.1,5.00,0.00,24.0,23.2,00.0,32.9,25.7,08.5,0000.0,0012.58,0000.47,0000.03
2022-01-12 03:55:00,,0831.2,5.00,0.00,23.9,23.2,00.0,32.9,25.7,08.4,0000.0,0013.45,0000.52,0000.04
2022-01-12 03:56:00,,0831.2,4.99,0.00,24.0,23.2,00.0,32.9,25.7,08.3,0000.0,0013.84,0000.50,0000.04
2022-01-12 03:57:00,,0831.2,5.00,0.00,24.0,23.2,00.0,32.9,25.7,08.2,0000.0,0011.84,0000.53,0000.04
2022-01-12 03:58:00,,0831.2,4.99,0.00,23.9,23.2,00.0,32.9,25.7,08.2,0000.0,0011.98,0000.61,0000.04
2022-01-12 03:59:00,,0831.2,5.00,0.00,23.9,23.2,00.0,32.9,25.7,08.2,0000.0,0012.13,0000.61,0000.04
